Precipitable_Water
0.53 0.52 0.52 0.52 0.51 0.50 0.50 0.52 0.54 0.55 0.57 0.58 0.59 0.58 0.58 0.58 0.56 0.53 0.50 0.46 0.44 0.42 0.38 0.37 0.36 0.36 0.38 0.40 0.41 0.44 0.46 0.38 0.30 0.29 0.32 0.25 0.32 0.50 0.44 0.43 0.45 0.46 0.54 0.56 0.64 0.62 0.59 0.78 0.95 1.19 1.06 0.98 1.01 0.97 1.20 1.29 1.31 1.21 1.10 1.12 1.00 1.16 1.12 1.27 1.21 1.36 1.41 1.34 1.45 1.54 1.60 1.51 1.43 1.66 1.72 1.79 1.60 1.56 1.57 1.51 1.52 1.43 1.40 1.44 1.39 1.37 1.34 1.34
0.56 0.56 0.55 0.54 0.53 0.52 0.51 0.51 0.51 0.52 0.53 0.55 0.56 0.57 0.58 0.58 0.58 0.57 0.53 0.50 0.47 0.43 0.40 0.38 0.37 0.36 0.38 0.39 0.40 0.43 0.42 0.36 0.28 0.28 0.24 0.31 0.41 0.45 0.44 0.39 0.38 0.39 0.51 0.50 0.54 0.58 0.63 0.75 0.93 1.01 0.86 0.77 1.04 0.97 1.13 1.12 1.31 1.01 1.14 1.14 1.10 1.24 1.25 1.33 1.30 1.40 1.40 1.42 1.49 1.59 1.65 1.57 1.51 1.64 1.66 1.47 1.46 1.48 1.38 1.46 1.38 1.37 1.51 1.46 1.35 1.33 1.28 1.28
0.57 0.57 0.57 0.57 0.56 0.55 0.54 0.52 0.52 0.51 0.51 0.51 0.53 0.55 0.56 0.57 0.57 0.56 0.55 0.52 0.49 0.46 0.43 0.39 0.37 0.36 0.38 0.40 0.39 0.42 0.41 0.30 0.34 0.25 0.23 0.32 0.37 0.42 0.38 0.37 0.34 0.35 0.47 0.45 0.55 0.66 0.72 0.88 0.87 0.77 0.74 0.74 0.95 0.88 0.98 1.14 1.16 1.09 1.07 1.11 1.12 1.35 1.28 1.36 1.32 1.36 1.55 1.56 1.52 1.47 1.59 1.65 1.65 1.64 1.76 1.50 1.36 1.48 1.32 1.30 1.38 1.42 1.36 1.30 1.28 1.30 1.24 1.28
0.59 0.58 0.57 0.56 0.56 0.55 0.55 0.55 0.53 0.53 0.52 0.51 0.51 0.52 0.53 0.54 0.54 0.54 0.55 0.53 0.51 0.48 0.46 0.42 0.38 0.37 0.39 0.40 0.41 0.44 0.40 0.31 0.22 0.39 0.56 0.50 0.42 0.35 0.31 0.30 0.30 0.32 0.47 0.51 0.64 0.81 0.87 0.91 0.73 0.65 0.62 0.62 0.86 0.89 0.97 0.98 0.94 1.23 1.03 1.03 1.17 1.34 1.28 1.32 1.35 1.39 1.52 1.63 1.51 1.54 1.59 1.53 1.68 1.68 1.65 1.56 1.39 1.36 1.39 1.48 1.45 1.36 1.34 1.26 1.25 1.24 1.21 1.25
0.63 0.62 0.61 0.60 0.58 0.57 0.56 0.55 0.54 0.54 0.54 0.52 0.51 0.52 0.52 0.51 0.51 0.52 0.53 0.53 0.51 0.49 0.47 0.44 0.41 0.39 0.40 0.43 0.39 0.42 0.35 0.16 0.51 0.59 0.58 0.47 0.43 0.37 0.29 0.25 0.26 0.31 0.45 0.50 0.77 0.91 0.83 0.71 0.60 0.55 0.55 0.57 0.76 0.87 0.81 1.00 1.05 1.17 1.11 1.23 1.24 1.40 1.22 1.33 1.38 1.37 1.47 1.58 1.55 1.54 1.45 1.50 1.74 1.63 1.61 1.60 1.29 1.25 1.46 1.57 1.57 1.51 1.36 1.28 1.22 1.20 1.22 1.22
0.63 0.62 0.61 0.62 0.62 0.61 0.60 0.58 0.56 0.54 0.53 0.53 0.53 0.52 0.52 0.50 0.48 0.50 0.51 0.51 0.50 0.48 0.47 0.45 0.43 0.40 0.43 0.43 0.42 0.39 0.24 0.16 0.54 0.68 0.74 0.60 0.49 0.39 0.32 0.27 0.23 0.34 0.44 0.59 0.77 0.84 0.72 0.61 0.54 0.46 0.45 0.55 0.62 0.67 0.78 0.82 1.03 0.87 1.14 1.16 1.28 1.40 1.22 1.28 1.46 1.43 1.46 1.50 1.48 1.46 1.61 1.70 1.60 1.54 1.68 1.57 1.55 1.49 1.69 1.76 1.65 1.53 1.42 1.35 1.29 1.23 1.21 1.20
0.63 0.62 0.61 0.61 0.61 0.62 0.62 0.62 0.60 0.58 0.56 0.53 0.53 0.53 0.52 0.50 0.48 0.48 0.50 0.51 0.50 0.48 0.46 0.45 0.44 0.45 0.44 0.44 0.40 0.35 0.24 0.27 0.32 0.77 0.57 0.51 0.51 0.42 0.36 0.28 0.24 0.36 0.49 0.57 0.75 0.71 0.58 0.54 0.48 0.45 0.41 0.47 0.57 0.57 0.64 0.71 0.81 0.87 0.92 1.16 1.29 1.20 1.20 1.33 1.27 1.36 1.42 1.50 1.45 1.61 1.69 1.55 1.54 1.37 1.63 1.55 1.76 1.77 1.81 1.78 1.73 1.69 1.52 1.39 1.31 1.25 1.19 1.21
0.60 0.60 0.61 0.61 0.60 0.60 0.61 0.61 0.61 0.61 0.60 0.57 0.54 0.53 0.51 0.49 0.47 0.49 0.49 0.50 0.50 0.48 0.47 0.44 0.43 0.46 0.48 0.38 0.32 0.30 0.30 0.18 0.56 0.62 0.48 0.50 0.48 0.43 0.36 0.25 0.23 0.36 0.51 0.54 0.72 0.64 0.55 0.49 0.42 0.47 0.40 0.41 0.50 0.48 0.52 0.56 0.59 0.67 0.78 1.03 1.18 1.13 1.17 1.25 1.31 1.29 1.34 1.46 1.53 1.59 1.44 1.48 1.55 1.46 1.59 1.52 1.69 1.76 1.78 1.80 1.74 1.64 1.50 1.36 1.32 1.31 1.28 1.24
0.57 0.58 0.59 0.59 0.60 0.60 0.60 0.60 0.60 0.61 0.62 0.60 0.57 0.54 0.51 0.47 0.46 0.48 0.50 0.50 0.49 0.50 0.47 0.45 0.42 0.47 0.54 0.38 0.24 0.23 0.34 0.64 0.76 0.62 0.52 0.39 0.43 0.41 0.30 0.20 0.25 0.36 0.52 0.64 0.76 0.62 0.50 0.44 0.46 0.44 0.37 0.37 0.43 0.34 0.39 0.43 0.44 0.58 0.77 0.94 1.11 1.10 1.13 1.09 1.31 1.26 1.34 1.38 1.54 1.33 1.38 1.50 1.61 1.72 1.58 1.57 1.69 1.82 1.88 1.77 1.69 1.61 1.46 1.34 1.28 1.29 1.27 1.24
0.55 0.55 0.56 0.56 0.57 0.58 0.59 0.59 0.60 0.60 0.61 0.61 0.60 0.56 0.51 0.47 0.47 0.48 0.48 0.49 0.49 0.47 0.47 0.43 0.42 0.46 0.42 0.36 0.36 0.26 0.57 0.73 0.72 0.63 0.46 0.37 0.33 0.38 0.27 0.22 0.25 0.38 0.54 0.65 0.73 0.55 0.43 0.46 0.42 0.46 0.45 0.39 0.35 0.31 0.37 0.43 0.55 0.71 0.73 0.84 1.01 1.08 1.08 1.09 1.02 1.27 1.30 1.29 1.50 1.33 1.35 1.42 1.64 1.64 1.38 1.72 1.84 1.86 1.81 1.74 1.72 1.51 1.40 1.34 1.28 1.28 1.23 1.19
0.56 0.56 0.55 0.55 0.55 0.56 0.57 0.58 0.59 0.60 0.60 0.60 0.60 0.56 0.52 0.49 0.48 0.48 0.47 0.47 0.49 0.48 0.45 0.41 0.44 0.43 0.32 0.42 0.29 0.35 0.71 0.74 0.68 0.55 0.45 0.32 0.29 0.30 0.25 0.25 0.27 0.40 0.60 0.71 0.68 0.55 0.50 0.49 0.45 0.45 0.37 0.29 0.30 0.32 0.37 0.41 0.56 0.61 0.75 0.74 0.86 0.98 1.02 1.08 0.96 1.26 1.20 1.21 1.41 1.44 1.38 1.50 1.63 1.66 1.41 1.63 1.77 1.78 1.65 1.75 1.58 1.48 1.40 1.31 1.27 1.24 1.19 1.17
0.57 0.56 0.56 0.55 0.55 0.55 0.56 0.57 0.59 0.59 0.60 0.59 0.59 0.56 0.53 0.50 0.49 0.48 0.47 0.47 0.47 0.48 0.45 0.41 0.44 0.42 0.36 0.37 0.34 0.50 0.68 0.83 0.72 0.59 0.45 0.34 0.26 0.27 0.29 0.31 0.29 0.43 0.65 0.70 0.65 0.57 0.53 0.49 0.43 0.35 0.26 0.30 0.25 0.30 0.34 0.44 0.48 0.52 0.65 0.65 0.73 0.85 0.91 0.98 0.94 1.15 1.19 1.16 1.40 1.46 1.31 1.32 1.40 1.38 1.60 1.74 1.78 1.70 1.68 1.60 1.48 1.48 1.39 1.31 1.26 1.24 1.17 1.17
0.58 0.57 0.57 0.56 0.55 0.55 0.55 0.56 0.58 0.59 0.59 0.58 0.58 0.56 0.52 0.52 0.50 0.47 0.49 0.50 0.50 0.46 0.44 0.42 0.43 0.43 0.36 0.27 0.32 0.47 0.59 0.85 0.72 0.61 0.46 0.39 0.35 0.34 0.42 0.40 0.31 0.54 0.73 0.76 0.67 0.63 0.53 0.48 0.42 0.33 0.34 0.29 0.28 0.27 0.50 0.43 0.45 0.47 0.53 0.66 0.69 0.74 0.76 0.90 0.93 1.07 1.15 1.20 1.38 1.34 0.87 1.10 1.31 1.47 1.61 1.78 1.73 1.72 1.61 1.50 1.48 1.47 1.34 1.32 1.24 1.24 1.22 1.19
0.62 0.61 0.60 0.59 0.57 0.56 0.55 0.56 0.56 0.57 0.58 0.57 0.58 0.55 0.52 0.51 0.50 0.50 0.50 0.49 0.49 0.43 0.42 0.44 0.43 0.41 0.40 0.43 0.60 0.53 0.77 0.81 0.78 0.61 0.47 0.46 0.36 0.40 0.50 0.50 0.39 0.55 0.74 0.71 0.65 0.61 0.54 0.50 0.44 0.37 0.37 0.29 0.25 0.40 0.38 0.42 0.41 0.34 0.45 0.58 0.57 0.58 0.60 0.81 0.87 1.12 1.02 1.28 1.33 1.29 0.90 1.09 1.31 1.44 1.61 1.75 1.75 1.63 1.51 1.44 1.45 1.45 1.34 1.33 1.27 1.21 1.20 1.18
0.64 0.63 0.62 0.61 0.59 0.58 0.57 0.56 0.56 0.56 0.57 0.57 0.56 0.53 0.52 0.49 0.49 0.50 0.50 0.42 0.42 0.44 0.42 0.44 0.41 0.41 0.27 0.40 0.60 0.68 0.65 0.76 0.62 0.64 0.60 0.47 0.46 0.45 0.47 0.50 0.40 0.50 0.58 0.62 0.63 0.62 0.56 0.50 0.42 0.32 0.26 0.30 0.31 0.29 0.29 0.36 0.37 0.37 0.36 0.40 0.49 0.50 0.61 0.79 0.90 1.02 0.88 1.14 1.25 1.18 0.91 1.06 1.29 1.45 1.58 1.73 1.72 1.65 1.49 1.46 1.41 1.39 1.31 1.33 1.28 1.18 1.19 1.21
0.66 0.64 0.65 0.63 0.62 0.60 0.59 0.58 0.57 0.56 0.56 0.57 0.54 0.52 0.51 0.50 0.48 0.49 0.47 0.43 0.45 0.43 0.44 0.33 0.33 0.32 0.41 0.43 0.49 0.60 0.43 0.40 0.46 0.66 0.68 0.61 0.56 0.45 0.45 0.36 0.38 0.46 0.54 0.56 0.62 0.60 0.52 0.46 0.34 0.28 0.26 0.26 0.25 0.26 0.32 0.30 0.33 0.35 0.32 0.37 0.40 0.47 0.64 0.73 0.86 1.01 1.01 1.00 1.15 1.11 0.90 1.09 1.20 1.49 1.59 1.72 1.73 1.64 1.53 1.53 1.46 1.40 1.33 1.34 1.31 1.16 1.21 1.21
0.66 0.66 0.65 0.65 0.63 0.62 0.61 0.59 0.58 0.57 0.57 0.57 0.53 0.52 0.52 0.50 0.50 0.48 0.46 0.46 0.45 0.43 0.43 0.48 0.55 0.46 0.24 0.58 0.71 0.49 0.41 0.39 0.65 0.68 0.57 0.70 0.49 0.58 0.45 0.37 0.39 0.44 0.49 0.52 0.52 0.49 0.46 0.38 0.35 0.27 0.25 0.23 0.24 0.28 0.27 0.26 0.27 0.29 0.31 0.31 0.44 0.44 0.62 0.69 0.93 1.13 1.08 1.05 0.95 1.10 0.99 1.07 1.26 1.48 1.56 1.66 1.71 1.68 1.59 1.51 1.56 1.44 1.38 1.38 1.33 1.22 1.24 1.21
0.67 0.66 0.66 0.65 0.64 0.63 0.61 0.60 0.59 0.58 0.58 0.56 0.52 0.48 0.44 0.49 0.49 0.42 0.39 0.40 0.46 0.43 0.41 0.47 0.60 0.49 0.26 0.34 0.35 0.45 0.43 0.46 0.61 0.68 0.62 0.62 0.59 0.59 0.50 0.45 0.41 0.47 0.42 0.41 0.44 0.37 0.40 0.33 0.30 0.20 0.20 0.19 0.23 0.22 0.20 0.23 0.24 0.29 0.27 0.23 0.35 0.47 0.54 0.66 0.68 0.96 0.99 1.10 1.00 1.00 1.00 1.08 1.22 1.35 1.49 1.57 1.70 1.67 1.60 1.60 1.54 1.51 1.45 1.42 1.37 1.24 1.25 1.21
0.68 0.68 0.67 0.65 0.64 0.62 0.62 0.61 0.60 0.60 0.58 0.54 0.53 0.58 0.61 0.64 0.61 0.66 0.59 0.51 0.36 0.31 0.45 0.30 0.32 0.33 0.31 0.35 0.44 0.52 0.35 0.58 0.58 0.61 0.56 0.56 0.63 0.51 0.50 0.49 0.43 0.41 0.33 0.31 0.33 0.32 0.35 0.32 0.29 0.20 0.16 0.16 0.19 0.21 0.19 0.29 0.30 0.32 0.32 0.27 0.29 0.41 0.46 0.51 0.74 1.04 0.95 0.92 0.97 0.98 0.96 0.96 1.10 1.24 1.42 1.56 1.64 1.56 1.55 1.60 1.59 1.57 1.54 1.59 1.44 1.29 1.28 1.22
0.68 0.68 0.68 0.66 0.64 0.63 0.60 0.61 0.60 0.60 0.58 0.48 0.55 0.65 0.66 0.61 0.56 0.62 0.62 0.55 0.32 0.49 0.51 0.45 0.34 0.40 0.40 0.41 0.42 0.48 0.50 0.69 0.51 0.48 0.61 0.66 0.64 0.49 0.44 0.42 0.39 0.37 0.33 0.24 0.31 0.27 0.35 0.24 0.22 0.18 0.17 0.18 0.18 0.21 0.22 0.31 0.35 0.33 0.33 0.32 0.31 0.42 0.46 0.51 0.71 0.86 1.01 0.91 0.93 0.98 1.04 1.03 1.04 1.18 1.34 1.49 1.55 1.49 1.51 1.54 1.56 1.56 1.54 1.55 1.61 1.35 1.33 1.27
0.70 0.69 0.68 0.67 0.64 0.62 0.62 0.59 0.60 0.58 0.56 0.50 0.52 0.50 0.47 0.35 0.33 0.35 0.41 0.46 0.36 0.47 0.41 0.44 0.37 0.35 0.45 0.54 0.62 0.59 0.52 0.48 0.59 0.49 0.58 0.66 0.64 0.47 0.41 0.37 0.33 0.28 0.28 0.27 0.30 0.30 0.32 0.23 0.22 0.23 0.20 0.21 0.20 0.20 0.22 0.26 0.32 0.35 0.33 0.34 0.33 0.37 0.44 0.55 0.65 0.80 0.96 0.80 0.87 0.91 0.97 1.01 1.10 1.13 1.28 1.47 1.44 1.37 1.44 1.51 1.52 1.53 1.54 1.54 1.64 1.44 1.38 1.37
0.70 0.69 0.68 0.66 0.64 0.61 0.60 0.59 0.57 0.55 0.53 0.50 0.48 0.48 0.55 0.40 0.40 0.48 0.38 0.27 0.38 0.35 0.30 0.36 0.39 0.37 0.46 0.55 0.61 0.64 0.54 0.50 0.47 0.52 0.60 0.45 0.58 0.38 0.45 0.35 0.31 0.25 0.28 0.27 0.30 0.27 0.23 0.21 0.24 0.25 0.24 0.24 0.26 0.22 0.22 0.27 0.31 0.38 0.37 0.41 0.34 0.34 0.47 0.66 0.63 0.83 0.89 0.82 0.81 0.85 0.88 0.98 1.10 1.18 1.23 1.30 1.32 1.39 1.51 1.51 1.53 1.53 1.57 1.58 1.68 1.61 1.49 1.40
0.71 0.69 0.68 0.65 0.63 0.61 0.58 0.58 0.56 0.53 0.44 0.45 0.45 0.47 0.51 0.41 0.43 0.47 0.32 0.33 0.33 0.39 0.30 0.25 0.24 0.31 0.39 0.51 0.53 0.49 0.40 0.38 0.37 0.51 0.56 0.47 0.55 0.47 0.53 0.35 0.33 0.29 0.28 0.26 0.24 0.24 0.20 0.20 0.24 0.27 0.27 0.25 0.25 0.24 0.22 0.27 0.34 0.42 0.42 0.43 0.34 0.36 0.43 0.59 0.75 0.78 0.83 0.75 0.74 0.85 0.82 0.88 1.13 1.23 1.20 1.26 1.33 1.36 1.46 1.53 1.61 1.66 1.62 1.58 1.57 1.61 1.52 1.42
0.69 0.70 0.69 0.64 0.64 0.62 0.59 0.54 0.53 0.46 0.40 0.38 0.42 0.52 0.47 0.43 0.42 0.39 0.37 0.28 0.35 0.33 0.25 0.25 0.20 0.22 0.30 0.37 0.51 0.42 0.36 0.41 0.37 0.49 0.62 0.44 0.44 0.52 0.54 0.38 0.36 0.31 0.29 0.26 0.26 0.26 0.23 0.25 0.24 0.26 0.28 0.25 0.23 0.23 0.21 0.25 0.32 0.43 0.47 0.47 0.44 0.37 0.43 0.46 0.58 0.66 0.73 0.75 0.69 0.89 0.84 0.85 1.04 1.03 1.05 1.16 1.28 1.33 1.41 1.55 1.58 1.66 1.66 1.61 1.65 1.79 1.69 1.54
0.67 0.68 0.68 0.66 0.62 0.69 0.63 0.58 0.45 0.42 0.47 0.55 0.52 0.52 0.43 0.49 0.45 0.46 0.29 0.33 0.31 0.35 0.26 0.22 0.18 0.19 0.28 0.41 0.46 0.33 0.32 0.40 0.36 0.54 0.61 0.45 0.51 0.49 0.52 0.50 0.39 0.30 0.32 0.31 0.27 0.26 0.28 0.30 0.28 0.22 0.25 0.25 0.23 0.25 0.25 0.25 0.28 0.37 0.45 0.49 0.48 0.40 0.44 0.47 0.48 0.50 0.51 0.55 0.56 0.71 0.57 0.71 0.87 0.92 0.92 1.08 1.16 1.21 1.35 1.34 1.36 1.53 1.56 1.60 1.66 1.69 1.75 1.67
0.66 0.66 0.66 0.66 0.63 0.59 0.69 0.52 0.45 0.54 0.56 0.48 0.50 0.43 0.55 0.43 0.54 0.42 0.35 0.27 0.29 0.28 0.19 0.14 0.13 0.23 0.33 0.34 0.36 0.34 0.35 0.31 0.34 0.53 0.58 0.45 0.59 0.50 0.53 0.50 0.42 0.36 0.33 0.34 0.27 0.27 0.30 0.32 0.29 0.24 0.23 0.25 0.23 0.25 0.28 0.26 0.27 0.32 0.35 0.45 0.49 0.50 0.46 0.44 0.43 0.40 0.39 0.38 0.50 0.59 0.55 0.58 0.76 0.85 0.97 1.03 1.07 1.11 1.26 1.27 1.34 1.52 1.54 1.61 1.64 1.65 1.70 1.60
0.64 0.63 0.64 0.64 0.64 0.61 0.44 0.46 0.45 0.54 0.50 0.49 0.44 0.50 0.47 0.48 0.50 0.48 0.42 0.28 0.29 0.26 0.18 0.19 0.11 0.35 0.27 0.35 0.32 0.35 0.18 0.30 0.37 0.58 0.55 0.48 0.47 0.60 0.47 0.45 0.42 0.45 0.43 0.40 0.33 0.26 0.29 0.31 0.30 0.27 0.24 0.24 0.22 0.20 0.29 0.27 0.31 0.35 0.40 0.38 0.44 0.44 0.42 0.43 0.42 0.40 0.38 0.44 0.49 0.52 0.49 0.52 0.60 0.80 0.91 1.03 1.03 1.12 1.17 1.28 1.33 1.39 1.47 1.52 1.59 1.61 1.64 1.67
0.64 0.62 0.61 0.62 0.63 0.62 0.45 0.43 0.53 0.60 0.49 0.46 0.46 0.44 0.50 0.46 0.46 0.57 0.49 0.30 0.17 0.27 0.23 0.19 0.26 0.39 0.33 0.29 0.31 0.26 0.28 0.37 0.28 0.54 0.58 0.47 0.50 0.53 0.44 0.42 0.40 0.39 0.43 0.42 0.30 0.37 0.32 0.29 0.29 0.27 0.27 0.25 0.23 0.23 0.40 0.40 0.33 0.39 0.39 0.38 0.38 0.41 0.43 0.49 0.44 0.42 0.39 0.37 0.37 0.46 0.49 0.40 0.58 0.75 0.95 1.00 0.94 1.02 1.11 1.23 1.30 1.39 1.49 1.47 1.51 1.63 1.67 1.64
0.63 0.62 0.60 0.59 0.63 0.71 0.71 0.52 0.43 0.49 0.44 0.47 0.43 0.43 0.47 0.52 0.51 0.47 0.34 0.22 0.25 0.26 0.41 0.25 0.30 0.30 0.24 0.25 0.25 0.29 0.28 0.32 0.28 0.49 0.50 0.47 0.55 0.52 0.37 0.41 0.42 0.39 0.42 0.42 0.35 0.38 0.37 0.31 0.32 0.31 0.30 0.27 0.29 0.31 0.43 0.46 0.33 0.38 0.42 0.48 0.39 0.37 0.44 0.50 0.46 0.41 0.37 0.33 0.32 0.42 0.44 0.35 0.55 0.71 0.85 1.01 1.02 0.98 1.04 1.23 1.32 1.33 1.41 1.50 1.50 1.59 1.70 1.69
0.64 0.62 0.60 0.58 0.57 0.71 0.71 0.70 0.56 0.51 0.49 0.44 0.47 0.48 0.48 0.49 0.47 0.39 0.31 0.22 0.30 0.24 0.28 0.28 0.19 0.23 0.22 0.20 0.25 0.26 0.24 0.26 0.32 0.40 0.41 0.41 0.53 0.48 0.45 0.42 0.37 0.36 0.36 0.44 0.44 0.42 0.37 0.35 0.36 0.37 0.34 0.38 0.39 0.37 0.39 0.43 0.39 0.38 0.42 0.43 0.33 0.33 0.40 0.47 0.42 0.42 0.37 0.30 0.32 0.38 0.40 0.38 0.46 0.67 0.77 0.83 0.88 1.02 1.05 1.18 1.31 1.33 1.40 1.47 1.47 1.47 1.57 1.65
0.64 0.62 0.59 0.60 0.46 0.56 0.59 0.55 0.62 0.58 0.57 0.54 0.51 0.55 0.54 0.50 0.42 0.32 0.22 0.22 0.26 0.25 0.23 0.27 0.23 0.23 0.20 0.18 0.18 0.20 0.25 0.27 0.32 0.34 0.34 0.35 0.38 0.41 0.38 0.33 0.41 0.37 0.33 0.37 0.37 0.41 0.43 0.34 0.36 0.46 0.49 0.44 0.41 0.38 0.37 0.44 0.41 0.39 0.44 0.43 0.40 0.36 0.39 0.42 0.37 0.41 0.33 0.29 0.34 0.37 0.40 0.39 0.32 0.56 0.83 0.91 1.00 1.12 1.14 1.05 1.25 1.30 1.27 1.32 1.44 1.43 1.44 1.56
0.62 0.62 0.61 0.57 0.56 0.57 0.45 0.48 0.54 0.60 0.56 0.57 0.53 0.52 0.48 0.45 0.49 0.29 0.25 0.31 0.21 0.22 0.20 0.23 0.23 0.20 0.20 0.22 0.19 0.16 0.23 0.27 0.30 0.26 0.28 0.25 0.25 0.26 0.31 0.29 0.33 0.30 0.30 0.33 0.31 0.40 0.38 0.35 0.36 0.44 0.49 0.43 0.35 0.32 0.34 0.39 0.42 0.38 0.41 0.44 0.35 0.34 0.32 0.28 0.33 0.29 0.27 0.29 0.34 0.38 0.38 0.34 0.33 0.59 0.81 0.89 0.99 1.12 1.21 1.21 1.22 1.24 1.27 1.27 1.41 1.45 1.41 1.54
0.59 0.61 0.60 0.58 0.60 0.53 0.54 0.60 0.56 0.56 0.60 0.55 0.54 0.50 0.47 0.41 0.27 0.26 0.21 0.17 0.20 0.24 0.23 0.24 0.23 0.21 0.22 0.19 0.19 0.16 0.21 0.19 0.28 0.26 0.27 0.25 0.25 0.23 0.29 0.31 0.35 0.32 0.28 0.32 0.33 0.35 0.35 0.39 0.42 0.42 0.42 0.39 0.39 0.28 0.30 0.30 0.38 0.39 0.39 0.40 0.35 0.31 0.28 0.25 0.29 0.32 0.31 0.32 0.36 0.37 0.38 0.38 0.67 0.76 0.94 0.92 1.04 1.15 1.18 1.21 1.20 1.23 1.18 1.22 1.28 1.43 1.46 1.50
0.56 0.59 0.55 0.57 0.59 0.56 0.56 0.58 0.57 0.58 0.58 0.60 0.59 0.50 0.40 0.30 0.23 0.22 0.22 0.22 0.25 0.25 0.22 0.24 0.22 0.21 0.19 0.21 0.21 0.21 0.18 0.23 0.25 0.26 0.24 0.26 0.24 0.23 0.22 0.27 0.30 0.31 0.33 0.36 0.31 0.31 0.28 0.30 0.36 0.37 0.34 0.43 0.39 0.38 0.33 0.34 0.37 0.40 0.44 0.41 0.37 0.34 0.30 0.24 0.26 0.25 0.27 0.30 0.33 0.41 0.33 0.48 0.44 0.68 0.99 1.03 1.08 1.14 1.21 1.19 1.18 1.19 1.19 1.19 1.22 1.29 1.35 1.42
0.55 0.55 0.58 0.57 0.62 0.63 0.64 0.66 0.63 0.61 0.59 0.61 0.56 0.49 0.29 0.27 0.29 0.28 0.27 0.23 0.23 0.22 0.21 0.23 0.22 0.23 0.19 0.21 0.25 0.25 0.22 0.22 0.24 0.26 0.27 0.26 0.23 0.27 0.25 0.25 0.32 0.35 0.38 0.32 0.38 0.36 0.30 0.31 0.38 0.39 0.42 0.45 0.38 0.41 0.47 0.40 0.37 0.41 0.42 0.42 0.38 0.34 0.38 0.29 0.32 0.30 0.29 0.28 0.28 0.35 0.43 0.59 0.65 0.91 0.97 1.08 1.08 1.13 1.18 1.14 1.14 1.12 1.17 1.19 1.21 1.23 1.28 1.41
0.50 0.56 0.71 0.57 0.51 0.63 0.71 0.67 0.65 0.65 0.60 0.56 0.47 0.33 0.27 0.28 0.27 0.27 0.27 0.26 0.26 0.25 0.20 0.22 0.22 0.19 0.21 0.21 0.26 0.24 0.27 0.26 0.26 0.25 0.26 0.27 0.26 0.28 0.31 0.29 0.30 0.37 0.37 0.32 0.40 0.34 0.34 0.27 0.35 0.40 0.44 0.43 0.42 0.43 0.45 0.46 0.32 0.41 0.43 0.35 0.35 0.44 0.41 0.35 0.33 0.34 0.33 0.29 0.26 0.34 0.57 0.64 0.78 0.87 0.93 1.00 1.01 1.04 1.06 1.03 1.08 1.11 1.10 1.11 1.23 1.26 1.25 1.38
0.43 0.55 0.62 0.69 0.60 0.45 0.47 0.50 0.58 0.59 0.59 0.49 0.38 0.26 0.32 0.32 0.21 0.27 0.25 0.25 0.28 0.28 0.21 0.18 0.19 0.20 0.23 0.23 0.25 0.26 0.28 0.27 0.28 0.27 0.23 0.29 0.30 0.34 0.34 0.35 0.38 0.39 0.39 0.37 0.36 0.42 0.33 0.30 0.41 0.42 0.38 0.39 0.41 0.41 0.47 0.49 0.50 0.43 0.37 0.36 0.42 0.46 0.43 0.37 0.30 0.33 0.27 0.24 0.25 0.33 0.40 0.49 0.55 0.49 0.90 0.93 0.91 0.96 0.98 0.95 0.99 1.05 1.08 1.08 1.21 1.28 1.29 1.35
0.46 0.49 0.55 0.51 0.49 0.46 0.45 0.50 0.55 0.56 0.58 0.47 0.31 0.33 0.33 0.29 0.27 0.28 0.25 0.29 0.25 0.27 0.35 0.24 0.24 0.24 0.21 0.23 0.24 0.25 0.28 0.24 0.28 0.25 0.28 0.30 0.31 0.37 0.35 0.34 0.36 0.37 0.38 0.41 0.37 0.39 0.41 0.33 0.37 0.39 0.37 0.37 0.41 0.39 0.41 0.47 0.49 0.39 0.38 0.48 0.35 0.31 0.30 0.36 0.34 0.29 0.26 0.22 0.25 0.33 0.47 0.47 0.55 0.56 0.74 0.79 0.80 0.86 0.91 0.93 0.95 0.96 1.02 1.10 1.17 1.25 1.31 1.38
0.54 0.57 0.55 0.58 0.54 0.45 0.39 0.46 0.48 0.52 0.54 0.46 0.36 0.40 0.27 0.29 0.31 0.27 0.29 0.29 0.27 0.32 0.34 0.36 0.31 0.28 0.32 0.24 0.24 0.25 0.27 0.23 0.28 0.27 0.26 0.30 0.28 0.34 0.34 0.36 0.36 0.36 0.37 0.41 0.38 0.39 0.41 0.35 0.34 0.38 0.35 0.34 0.33 0.32 0.25 0.29 0.38 0.43 0.43 0.38 0.41 0.36 0.33 0.31 0.32 0.35 0.34 0.28 0.24 0.26 0.42 0.44 0.64 0.67 0.77 0.75 0.88 0.93 0.91 0.86 0.88 0.93 0.95 1.04 1.16 1.18 1.25 1.36
0.49 0.50 0.53 0.56 0.54 0.43 0.40 0.45 0.46 0.48 0.46 0.33 0.33 0.39 0.27 0.32 0.29 0.30 0.32 0.32 0.33 0.30 0.38 0.40 0.34 0.31 0.33 0.31 0.29 0.24 0.24 0.25 0.27 0.29 0.30 0.32 0.27 0.34 0.32 0.33 0.32 0.34 0.37 0.41 0.38 0.40 0.39 0.43 0.31 0.32 0.36 0.34 0.27 0.28 0.24 0.27 0.29 0.33 0.33 0.34 0.36 0.36 0.39 0.36 0.37 0.34 0.32 0.34 0.30 0.27 0.46 0.58 0.70 0.87 0.84 0.85 0.88 0.90 0.92 0.91 0.92 0.94 0.95 0.99 1.08 1.13 1.18 1.27
0.58 0.53 0.46 0.53 0.49 0.41 0.37 0.41 0.41 0.39 0.43 0.42 0.32 0.30 0.29 0.31 0.33 0.32 0.33 0.30 0.35 0.34 0.29 0.34 0.33 0.35 0.37 0.31 0.30 0.31 0.25 0.29 0.29 0.28 0.29 0.33 0.33 0.28 0.33 0.33 0.29 0.31 0.37 0.37 0.37 0.39 0.39 0.37 0.35 0.34 0.31 0.29 0.30 0.32 0.28 0.24 0.27 0.32 0.32 0.33 0.36 0.34 0.34 0.29 0.28 0.33 0.32 0.35 0.33 0.33 0.48 0.62 0.80 0.93 0.94 0.94 0.96 0.94 0.93 0.90 0.91 0.95 0.94 0.98 1.00 1.05 1.11 1.17
0.56 0.46 0.36 0.45 0.46 0.32 0.39 0.37 0.35 0.25 0.29 0.33 0.30 0.29 0.30 0.31 0.33 0.32 0.33 0.35 0.33 0.35 0.35 0.36 0.34 0.35 0.35 0.38 0.35 0.31 0.29 0.29 0.32 0.33 0.33 0.31 0.37 0.35 0.33 0.34 0.32 0.33 0.35 0.33 0.34 0.40 0.39 0.39 0.39 0.33 0.32 0.30 0.32 0.33 0.30 0.32 0.31 0.28 0.28 0.27 0.34 0.35 0.35 0.32 0.26 0.29 0.31 0.34 0.39 0.56 0.49 0.62 0.87 0.92 0.93 0.93 0.92 0.96 0.96 0.94 0.92 0.93 0.97 0.99 1.00 1.03 1.09 1.14
0.50 0.41 0.39 0.32 0.24 0.36 0.37 0.40 0.33 0.26 0.25 0.26 0.29 0.30 0.32 0.34 0.31 0.29 0.33 0.32 0.36 0.34 0.35 0.35 0.36 0.35 0.37 0.37 0.35 0.34 0.35 0.32 0.31 0.35 0.36 0.37 0.36 0.36 0.34 0.34 0.34 0.34 0.32 0.38 0.38 0.41 0.39 0.36 0.36 0.39 0.38 0.36 0.33 0.33 0.32 0.32 0.33 0.28 0.27 0.27 0.28 0.28 0.31 0.31 0.33 0.37 0.32 0.33 0.43 0.50 0.48 0.63 0.85 0.94 0.94 0.93 0.96 0.98 0.98 0.98 0.95 0.95 0.97 1.01 1.00 1.01 1.02 1.06
0.53 0.35 0.32 0.25 0.33 0.40 0.36 0.34 0.33 0.28 0.24 0.21 0.25 0.26 0.28 0.31 0.31 0.32 0.31 0.32 0.35 0.34 0.36 0.34 0.37 0.38 0.39 0.37 0.35 0.38 0.40 0.36 0.36 0.36 0.34 0.36 0.33 0.34 0.33 0.35 0.35 0.31 0.34 0.34 0.33 0.36 0.30 0.34 0.35 0.35 0.33 0.32 0.32 0.33 0.31 0.31 0.30 0.26 0.26 0.25 0.27 0.27 0.33 0.36 0.38 0.43 0.32 0.34 0.45 0.50 0.45 0.61 0.83 0.94 0.95 0.92 0.93 0.91 0.91 0.96 0.97 0.94 0.98 1.01 1.01 1.01 1.04 1.08
0.54 0.36 0.35 0.30 0.27 0.27 0.24 0.30 0.31 0.28 0.27 0.26 0.26 0.24 0.24 0.24 0.28 0.30 0.32 0.31 0.34 0.35 0.35 0.34 0.36 0.37 0.37 0.39 0.37 0.36 0.38 0.37 0.36 0.36 0.38 0.36 0.33 0.33 0.32 0.34 0.34 0.30 0.34 0.37 0.37 0.38 0.34 0.41 0.35 0.31 0.29 0.26 0.23 0.24 0.26 0.25 0.24 0.27 0.27 0.27 0.27 0.28 0.30 0.32 0.28 0.31 0.27 0.33 0.38 0.51 0.52 0.73 0.87 0.91 0.89 0.91 0.92 0.90 0.94 0.97 1.00 0.99 0.98 1.01 1.01 1.04 1.06 1.09
0.41 0.41 0.44 0.30 0.25 0.29 0.23 0.18 0.27 0.25 0.25 0.23 0.23 0.19 0.25 0.23 0.21 0.23 0.26 0.30 0.33 0.34 0.36 0.35 0.35 0.35 0.34 0.34 0.33 0.34 0.36 0.39 0.41 0.39 0.34 0.33 0.33 0.30 0.32 0.33 0.32 0.32 0.31 0.32 0.36 0.34 0.35 0.41 0.41 0.44 0.37 0.37 0.40 0.40 0.41 0.37 0.30 0.24 0.27 0.28 0.30 0.28 0.30 0.32 0.34 0.33 0.30 0.33 0.42 0.56 0.54 0.62 0.71 0.80 0.83 0.87 0.88 0.86 0.87 0.91 0.91 0.94 0.98 1.03 1.05 1.06 1.08 1.10
0.49 0.34 0.32 0.38 0.32 0.28 0.25 0.25 0.26 0.24 0.27 0.27 0.28 0.21 0.23 0.20 0.19 0.21 0.18 0.26 0.28 0.32 0.32 0.35 0.35 0.31 0.35 0.33 0.35 0.36 0.36 0.36 0.37 0.37 0.40 0.36 0.36 0.33 0.32 0.32 0.33 0.32 0.31 0.34 0.33 0.30 0.33 0.32 0.37 0.40 0.43 0.46 0.39 0.39 0.40 0.39 0.35 0.30 0.27 0.27 0.28 0.29 0.29 0.30 0.30 0.30 0.39 0.39 0.49 0.59 0.65 0.59 0.66 0.76 0.82 0.84 0.88 0.88 0.89 0.89 0.88 0.90 0.95 0.97 1.02 1.06 1.09 1.10
0.30 0.25 0.26 0.33 0.34 0.24 0.32 0.23 0.30 0.22 0.19 0.25 0.23 0.24 0.26 0.26 0.27 0.26 0.24 0.21 0.27 0.22 0.32 0.33 0.31 0.38 0.41 0.41 0.42 0.42 0.36 0.39 0.36 0.40 0.39 0.39 0.36 0.35 0.33 0.31 0.32 0.31 0.31 0.33 0.34 0.30 0.33 0.31 0.32 0.33 0.36 0.41 0.41 0.39 0.38 0.37 0.36 0.33 0.30 0.26 0.25 0.28 0.31 0.29 0.30 0.32 0.37 0.34 0.44 0.61 0.71 0.65 0.71 0.78 0.84 0.86 0.89 0.89 0.89 0.91 0.91 0.92 0.91 0.93 0.96 1.00 1.01 1.03
0.33 0.25 0.22 0.18 0.27 0.21 0.19 0.19 0.23 0.22 0.23 0.27 0.25 0.27 0.21 0.23 0.21 0.20 0.27 0.26 0.22 0.25 0.29 0.32 0.29 0.33 0.35 0.40 0.44 0.40 0.43 0.36 0.39 0.42 0.42 0.39 0.41 0.35 0.34 0.39 0.41 0.38 0.33 0.33 0.34 0.34 0.27 0.27 0.34 0.34 0.32 0.32 0.34 0.38 0.38 0.37 0.35 0.33 0.32 0.30 0.31 0.31 0.29 0.29 0.29 0.32 0.35 0.44 0.48 0.58 0.60 0.69 0.80 0.80 0.84 0.89 0.91 0.91 0.91 0.93 0.93 0.88 0.85 0.84 0.86 0.89 0.94 0.97
0.38 0.44 0.30 0.26 0.29 0.27 0.25 0.29 0.27 0.26 0.21 0.25 0.29 0.16 0.27 0.24 0.23 0.26 0.24 0.30 0.23 0.21 0.29 0.29 0.32 0.37 0.40 0.42 0.44 0.42 0.45 0.45 0.50 0.45 0.43 0.37 0.37 0.34 0.35 0.41 0.38 0.42 0.40 0.34 0.30 0.36 0.25 0.29 0.32 0.35 0.32 0.30 0.32 0.33 0.37 0.37 0.35 0.32 0.34 0.34 0.32 0.31 0.29 0.29 0.29 0.31 0.36 0.54 0.55 0.58 0.61 0.61 0.82 0.91 0.88 0.89 0.89 0.90 0.90 0.87 0.87 0.86 0.84 0.81 0.79 0.80 0.84 0.91
0.50 0.42 0.40 0.47 0.35 0.19 0.29 0.33 0.35 0.32 0.33 0.30 0.27 0.18 0.27 0.22 0.24 0.24 0.21 0.31 0.29 0.24 0.27 0.25 0.26 0.28 0.35 0.38 0.40 0.37 0.41 0.43 0.43 0.41 0.42 0.36 0.36 0.40 0.37 0.41 0.40 0.35 0.42 0.36 0.34 0.34 0.27 0.28 0.35 0.33 0.28 0.27 0.28 0.28 0.28 0.33 0.34 0.33 0.33 0.32 0.31 0.29 0.26 0.30 0.31 0.37 0.42 0.48 0.58 0.61 0.61 0.60 0.78 0.89 0.88 0.87 0.86 0.84 0.83 0.84 0.84 0.81 0.82 0.82 0.80 0.79 0.82 0.85
0.54 0.42 0.47 0.42 0.37 0.22 0.30 0.21 0.22 0.39 0.34 0.27 0.25 0.24 0.23 0.21 0.22 0.28 0.25 0.22 0.26 0.30 0.31 0.30 0.28 0.32 0.27 0.32 0.31 0.34 0.37 0.36 0.36 0.39 0.38 0.37 0.37 0.36 0.35 0.34 0.33 0.37 0.39 0.37 0.35 0.29 0.30 0.25 0.28 0.28 0.23 0.23 0.27 0.29 0.27 0.26 0.27 0.28 0.29 0.31 0.32 0.31 0.30 0.33 0.46 0.54 0.58 0.58 0.58 0.53 0.63 0.72 0.76 0.80 0.78 0.79 0.81 0.82 0.81 0.82 0.80 0.81 0.83 0.81 0.81 0.80 0.81 0.83
Wind_Speed
16 16 17 17 16 16 16 16 16 16 16 16 15 15 15 15 15 15 15 15 15 15 15 15 15 15 15 15 15 15 15 16 16 17 18 17 17 17 16 16 17 17 17 17 17 17 17 17 17 16 14 13 12 10 10 10 9 7 6 4 4 4 2 3 3 3 6 8 9 10 11 11 11 10 10 10 8 8 8 6 9 13 14 15 17 19 19 19
17 17 17 17 17 17 17 17 17 17 16 16 16 16 16 16 16 16 16 16 16 16 15 15 15 15 15 15 16 16 16 17 17 19 19 18 17 17 16 16 17 18 18 18 18 18 18 17 17 16 14 13 12 11 10 10 9 8 6 3 3 2 2 3 3 4 5 8 10 10 11 11 11 11 11 10 9 8 8 8 11 15 15 17 19 19 18 18
17 17 17 17 18 18 18 18 17 17 17 17 17 17 17 17 17 17 17 17 17 16 16 16 16 16 16 15 15 16 16 17 18 19 19 19 19 18 17 17 17 18 19 18 18 19 18 17 16 16 15 13 12 12 11 10 9 8 6 4 4 2 2 3 4 4 6 9 11 10 9 10 10 10 10 11 10 9 9 10 13 15 17 19 19 19 19 18
17 18 18 18 18 18 18 18 18 18 18 18 18 18 18 18 18 18 18 18 18 17 17 16 16 16 16 16 16 15 16 17 17 16 15 17 19 19 18 17 17 18 18 18 18 18 18 17 16 16 15 14 13 13 12 10 8 7 6 4 4 4 1 3 4 6 7 9 10 9 8 8 9 9 9 11 11 9 9 10 13 16 18 19 19 20 19 17
18 18 18 18 18 18 18 18 19 19 18 18 18 18 18 18 18 18 18 18 18 18 18 17 17 16 16 16 16 16 16 15 15 15 14 15 17 18 19 18 18 18 18 18 18 18 18 17 16 17 16 14 14 14 13 12 10 7 6 4 3 4 3 4 5 7 8 9 9 9 8 8 8 9 9 9 10 10 10 10 13 16 17 19 19 19 19 18
19 19 19 19 19 19 19 19 19 19 19 19 19 19 19 19 19 19 19 19 19 19 18 18 17 17 16 16 16 16 16 15 13 15 16 15 16 18 19 19 19 19 19 19 18 17 17 17 16 17 16 15 15 14 13 13 12 9 7 7 6 4 3 6 6 7 8 8 9 8 8 8 8 9 9 9 11 12 12 11 13 16 17 18 18 18 19 18
20 20 19 19 19 19 20 20 19 19 19 19 19 19 19 19 19 19 19 19 19 19 19 19 18 18 17 17 17 17 19 18 16 16 16 16 17 17 18 19 20 20 20 20 19 18 17 17 17 16 15 15 14 14 14 13 13 12 9 8 8 5 3 6 7 7 8 8 8 8 8 9 9 10 10 10 11 12 12 11 13 16 17 18 18 17 18 18
21 21 20 20 20 20 20 20 20 20 19 19 19 19 19 19 19 19 19 19 20 19 19 19 19 18 17 17 18 18 19 20 17 17 16 16 17 18 19 19 20 21 21 21 19 18 17 17 17 16 15 14 14 13 13 14 14 13 11 8 7 6 3 6 7 8 8 7 7 7 8 8 9 11 11 11 12 12 12 12 13 16 17 17 17 17 17 17
22 21 21 21 21 21 20 20 20 20 20 20 19 19 19 19 19 19 19 20 20 20 20 19 19 19 18 18 18 18 18 17 16 17 17 16 17 19 20 20 21 22 21 21 20 19 18 17 17 17 16 14 13 12 12 13 13 13 13 11 8 7 5 5 7 9 8 6 6 7 7 8 9 11 12 12 13 12 12 13 14 16 18 17 17 17 17 17
22 22 22 22 22 21 21 21 21 20 20 20 20 19 20 20 20 20 20 20 20 20 20 20 20 19 19 19 19 18 16 16 16 17 17 17 17 19 22 21 22 22 21 21 20 20 19 17 17 17 16 14 12 11 11 13 12 10 12 13 11 9 7 6 8 10 7 6 8 7 7 8 9 10 12 13 13 12 13 15 16 17 18 18 17 17 17 17
22 22 22 22 22 22 22 22 21 21 21 21 20 20 19 20 20 20 20 20 20 21 20 20 20 20 20 20 21 18 16 17 17 16 17 18 18 20 22 22 23 23 21 21 20 20 19 18 17 16 15 14 13 12 12 14 12 10 11 13 13 11 10 8 8 10 7 6 8 7 7 7 9 11 11 12 12 13 13 15 18 18 18 18 18 17 16 16
23 23 23 23 23 23 22 22 22 21 21 21 20 20 19 19 20 20 20 20 20 20 21 21 20 20 20 21 23 22 17 17 17 17 17 18 18 20 21 22 23 23 22 20 20 20 20 19 18 17 15 13 14 12 11 15 14 12 11 11 13 13 11 11 10 9 8 7 8 8 7 7 9 11 12 12 12 14 14 15 18 18 18 18 18 17 16 16
23 23 23 23 23 23 23 22 22 22 21 21 20 20 19 19 19 20 20 19 19 20 20 21 20 20 21 20 22 23 19 18 18 18 18 18 19 20 20 21 23 24 22 20 19 19 20 19 18 19 16 14 15 11 9 14 15 13 12 11 11 12 12 12 12 10 9 9 11 9 6 7 9 12 12 12 13 14 14 16 18 18 18 17 17 17 16 16
24 24 24 24 23 23 22 22 22 21 21 20 20 19 19 19 18 19 19 19 18 18 19 20 21 21 21 22 20 20 20 19 19 19 19 19 19 20 20 21 23 24 23 21 19 19 19 19 18 18 17 17 17 12 11 14 14 13 13 12 11 11 11 13 13 12 9 10 12 10 6 7 10 13 14 13 14 14 14 17 18 17 18 17 17 17 16 16
24 24 24 24 23 23 22 22 21 20 20 20 19 18 18 17 17 17 18 18 17 18 18 19 21 21 21 23 21 19 20 21 21 21 20 20 20 20 20 21 23 23 23 21 20 19 19 18 18 18 17 18 18 14 13 15 14 14 14 12 12 11 9 11 13 12 10 11 13 10 6 7 10 13 15 13 14 15 14 16 18 18 18 17 17 17 16 16
25 24 24 24 23 23 22 21 20 20 19 18 18 17 17 16 16 16 16 17 17 17 18 18 20 21 20 21 20 20 21 22 22 21 21 20 20 20 20 21 22 23 22 21 19 19 19 18 18 18 17 17 17 15 14 15 15 15 15 13 13 13 9 10 12 12 11 12 13 11 7 7 9 13 15 14 14 15 15 15 16 18 18 18 17 17 17 16
24 24 24 24 23 22 22 20 20 19 18 17 16 16 15 15 15 15 16 16 17 17 18 18 19 21 21 20 20 21 22 22 22 21 21 21 20 20 20 21 22 22 22 21 19 19 20 19 18 18 18 17 17 16 15 15 15 15 16 15 13 13 12 11 11 11 11 11 12 11 9 8 9 12 15 15 15 15 15 14 15 17 18 18 17 17 17 17
24 24 23 23 22 22 21 19 19 17 16 16 15 14 14 14 14 14 15 16 16 17 18 19 19 19 21 22 22 22 22 22 22 22 21 21 21 21 21 21 21 21 21 21 20 20 21 20 19 18 18 18 18 18 16 15 16 15 16 16 14 14 14 14 13 12 12 11 11 11 10 10 10 11 13 15 16 15 14 15 15 16 16 17 18 18 18 18
24 23 23 22 21 20 19 18 17 16 15 14 13 13 13 13 12 13 15 16 17 17 15 17 20 17 15 19 22 22 22 22 22 22 22 21 21 22 22 21 21 21 21 20 21 21 20 20 20 19 19 19 19 19 18 17 16 15 15 16 15 14 14 14 14 14 13 11 11 11 10 11 11 11 12 15 16 15 15 15 16 16 16 16 18 19 18 18
23 22 22 21 20 19 18 16 15 14 13 12 12 12 12 11 11 12 13 16 19 19 15 16 21 18 14 15 18 20 21 21 21 22 23 22 21 22 22 21 21 22 21 20 20 21 21 20 21 21 20 20 20 20 19 19 17 14 15 16 16 15 13 13 14 15 14 11 11 11 10 11 12 12 12 14 15 14 15 16 16 17 17 18 18 19 20 19
23 22 21 20 19 18 16 15 14 13 12 11 11 11 11 11 10 10 11 15 19 21 19 18 20 20 17 14 16 20 20 20 21 22 23 22 22 22 23 22 22 22 22 21 20 21 22 22 22 22 22 20 20 20 20 20 19 16 16 16 16 15 13 13 14 14 14 11 11 12 11 11 12 12 13 13 14 15 16 17 17 17 18 19 19 19 20 19
22 21 20 19 18 17 15 14 13 12 11 10 10 11 11 10 10 10 11 14 17 20 20 19 20 20 19 17 16 19 20 21 22 22 23 23 23 22 22 23 23 22 22 23 21 20 22 23 22 22 22 21 20 20 20 20 19 16 16 16 15 15 13 12 14 14 14 12 11 12 12 12 12 12 13 14 13 14 16 17 17 18 18 19 19 19 20 20
21 20 19 18 17 16 14 13 12 11 10 8 9 11 11 10 9 11 11 12 14 17 19 20 20 20 21 20 18 18 21 22 22 23 23 23 24 23 22 23 23 22 23 24 22 21 21 22 23 22 21 22 21 20 21 20 19 16 16 15 15 17 14 12 14 14 13 11 11 13 12 12 12 12 13 14 14 13 15 16 16 16 17 19 20 19 19 21
20 19 19 17 16 15 13 12 11 9 8 8 11 11 10 9 9 10 10 12 13 14 16 18 19 20 21 21 19 20 21 21 22 23 24 23 24 23 22 22 23 23 22 24 24 22 21 20 22 23 21 23 22 20 21 20 18 17 18 16 14 17 17 13 13 13 13 12 13 14 12 11 12 13 14 15 15 14 15 15 15 15 17 18 19 18 18 20
19 18 18 16 15 14 13 11 9 8 7 9 10 10 10 9 8 8 9 10 11 13 13 15 17 17 18 18 18 20 21 21 22 23 24 24 24 22 22 22 22 22 22 24 25 22 21 20 21 23 23 23 23 21 21 21 18 17 19 19 16 16 18 15 13 12 12 12 15 15 12 11 14 15 14 15 16 15 14 15 16 16 17 19 19 18 19 20
18 18 17 16 14 13 12 10 8 8 8 9 9 9 9 8 7 7 8 9 10 11 11 13 15 15 16 17 17 19 20 20 21 23 23 24 25 23 20 21 21 22 22 23 23 21 21 20 21 23 23 23 23 21 22 22 19 17 18 20 18 17 19 18 16 15 12 11 15 17 12 9 13 15 15 15 16 17 15 16 17 17 18 19 18 17 18 19
18 17 16 15 14 12 11 10 10 10 10 9 8 9 8 7 6 5 6 6 8 10 10 12 13 14 15 17 18 18 16 17 20 23 23 23 25 23 20 21 21 22 22 21 21 21 21 22 22 23 23 23 23 22 22 22 20 17 15 17 20 18 16 17 16 17 15 12 14 18 15 9 10 14 15 16 17 17 16 15 16 17 17 18 19 19 18 18
17 17 16 14 13 11 11 11 11 11 10 9 9 8 6 5 5 4 3 2 4 7 9 10 11 13 14 16 20 18 13 15 19 20 21 22 24 23 21 22 21 22 23 22 21 20 22 24 22 23 23 22 23 22 21 22 21 19 14 13 20 20 16 14 15 17 16 15 15 17 17 11 9 13 15 16 16 15 15 15 16 17 17 18 18 19 20 19
16 16 15 14 12 11 10 11 11 11 10 8 7 6 4 4 3 2 2 1 2 6 8 8 11 13 13 16 21 19 15 16 17 18 20 21 24 23 20 21 21 22 25 24 22 19 20 24 23 23 23 21 21 23 22 21 22 22 16 13 18 22 19 15 14 15 16 16 16 17 17 12 9 12 14 14 13 13 13 13 14 16 18 19 18 19 19 20
15 15 15 14 12 10 10 9 9 9 9 7 5 4 3 2 2 2 1 1 2 5 5 6 10 13 14 16 19 19 18 16 15 17 19 20 24 23 20 20 20 21 24 25 23 19 18 21 22 22 23 21 20 22 23 21 21 22 18 14 15 18 20 16 12 13 15 16 18 19 19 15 11 13 15 14 14 14 13 12 13 15 17 19 19 19 19 19
14 13 13 12 11 11 10 9 9 9 8 6 4 3 2 2 2 1 1 1 1 2 3 5 7 10 14 16 17 18 19 16 14 17 18 19 22 23 20 21 20 18 21 23 23 21 20 21 22 22 22 23 21 22 22 22 22 22 18 16 15 15 18 18 14 14 15 15 18 19 20 18 14 15 15 14 14 15 14 13 13 14 16 17 17 18 18 18
13 12 11 11 11 12 10 9 10 9 7 5 3 3 3 2 1 1 1 1 2 1 3 4 5 8 13 16 16 17 18 17 16 18 18 18 21 22 21 21 20 19 19 20 21 22 21 21 22 23 23 24 23 21 22 22 22 22 19 18 18 15 16 17 16 16 16 16 17 19 19 17 12 13 16 15 14 13 13 13 13 14 15 16 16 17 18 18
13 12 11 9 10 10 9 9 9 8 7 4 3 3 3 1 0 1 1 0 1 1 3 3 5 8 11 13 14 15 16 16 17 18 18 19 19 21 22 21 21 20 17 18 21 22 21 20 22 23 22 24 25 22 22 22 23 24 21 18 19 17 16 17 17 16 16 17 18 19 19 16 11 11 14 15 13 12 11 11 12 13 14 15 16 16 17 18
13 11 9 9 8 9 9 8 7 7 6 4 3 4 3 1 1 2 2 2 0 2 3 2 5 9 11 10 11 13 15 14 16 17 17 18 18 19 21 22 21 19 16 17 20 22 21 21 22 23 21 23 26 23 20 21 22 24 23 19 19 18 16 16 16 16 16 16 17 19 19 17 15 14 14 13 13 11 10 10 11 12 12 13 15 15 16 17
12 9 8 9 8 8 8 7 6 6 6 5 3 2 3 3 3 3 3 2 1 2 3 2 5 9 10 8 8 11 12 12 15 17 16 17 16 15 17 20 20 18 16 16 18 20 22 21 22 23 21 22 27 25 20 21 22 23 23 21 20 19 17 15 15 17 17 15 16 17 14 13 15 16 15 14 13 11 10 9 10 10 10 9 11 14 15 17
11 8 7 8 8 7 7 6 6 5 5 6 5 3 3 3 4 4 3 2 2 2 2 3 5 7 8 7 7 9 9 9 13 15 15 16 13 11 12 15 16 17 16 15 15 16 19 19 20 24 22 21 26 26 21 21 21 20 23 24 21 19 18 16 15 17 18 17 17 16 13 14 16 15 15 15 13 11 10 9 9 9 9 8 8 11 14 16
9 8 7 8 7 7 7 5 4 4 5 5 4 4 4 3 4 4 3 2 2 2 1 3 3 4 8 8 8 9 7 8 12 13 13 14 11 10 12 13 14 16 16 15 15 14 14 13 15 21 22 20 24 26 23 23 21 18 20 22 21 20 20 18 15 16 18 17 18 17 17 17 17 16 16 16 13 12 10 10 9 9 10 9 9 9 11 13
8 8 7 6 5 8 8 5 3 4 4 5 4 5 5 4 4 4 2 2 1 1 2 2 3 3 5 7 7 9 8 9 12 12 11 12 11 11 14 14 14 16 17 16 16 14 12 12 15 19 20 19 22 25 25 25 25 20 16 17 20 21 20 20 17 16 18 17 16 18 19 19 18 17 18 16 14 13 11 11 11 10 10 10 10 9 9 11
7 7 6 4 4 8 8 4 3 3 4 5 5 4 4 4 4 4 2 1 2 3 3 1 5 3 3 6 6 8 9 9 10 11 11 11 10 10 13 15 15 15 17 17 17 14 13 14 16 19 21 20 21 24 25 25 26 24 18 16 19 19 19 20 19 17 16 16 16 17 17 16 15 16 17 16 14 13 12 11 12 11 9 10 10 10 10 9
6 7 5 3 5 8 6 3 3 4 5 5 5 4 4 4 5 4 1 1 2 3 2 1 4 2 2 5 6 6 8 8 8 9 10 9 9 8 11 15 15 15 16 17 17 16 15 14 13 15 20 21 21 24 26 26 25 24 21 18 19 19 18 18 20 20 17 15 15 14 13 13 14 15 15 15 14 13 12 11 11 12 11 10 11 11 11 11
6 6 4 4 6 6 4 3 5 5 5 4 3 4 4 3 4 4 1 1 2 3 2 1 2 2 3 4 5 6 6 5 6 7 7 8 8 8 9 12 14 15 15 17 18 16 15 14 12 11 16 20 20 23 26 25 25 25 23 20 20 20 18 17 18 20 19 17 15 13 13 14 14 15 14 14 14 12 12 12 12 13 13 12 12 11 11 12
5 4 4 6 6 4 4 4 5 5 5 4 3 4 4 3 4 4 1 2 2 2 3 2 2 2 3 3 3 6 6 5 7 7 6 6 6 6 7 9 11 13 15 16 15 14 14 15 13 11 13 15 17 21 24 23 23 24 24 23 22 21 20 18 17 18 20 20 15 12 14 15 15 16 15 14 14 12 11 13 13 13 14 14 13 12 11 12
5 4 4 5 4 3 4 5 4 4 5 5 4 4 3 3 3 3 2 1 2 2 2 2 2 3 4 2 2 3 5 5 6 6 6 7 5 5 6 7 8 11 15 15 13 13 16 17 16 12 11 12 14 17 20 22 23 23 24 24 24 23 22 18 15 15 18 19 15 12 14 15 15 16 16 14 14 12 11 12 13 13 13 14 14 13 12 12
5 4 3 4 3 3 5 5 4 3 4 5 4 2 3 3 3 3 2 2 2 1 2 1 1 4 6 6 4 2 3 5 5 4 5 5 5 5 6 6 7 8 12 14 14 14 16 18 18 14 12 14 14 14 17 22 23 23 24 24 24 24 21 17 15 14 17 19 16 12 14 17 16 16 16 16 15 13 12 12 13 14 14 14 14 13 13 12
5 3 3 3 3 3 5 5 4 4 4 4 4 3 2 2 3 3 3 2 2 2 2 2 2 3 4 5 6 5 5 7 5 5 5 4 5 6 6 6 7 7 9 12 14 14 14 16 18 17 16 15 14 13 14 18 22 24 24 25 26 25 21 18 17 15 17 20 17 14 15 17 17 17 17 16 15 14 13 12 13 14 14 14 14 14 13 13
4 3 2 2 3 3 4 4 4 5 4 3 3 3 3 3 3 3 3 3 2 2 2 2 3 4 4 5 6 6 7 8 6 6 6 5 5 6 6 6 6 7 9 12 14 14 14 16 17 18 18 14 12 13 13 14 18 22 24 25 25 23 22 21 20 18 17 17 16 16 18 19 19 18 17 17 16 15 14 13 13 14 14 14 14 14 14 14
4 4 2 1 2 3 3 4 4 4 4 3 3 3 3 4 4 3 3 3 2 3 3 2 3 4 4 5 6 6 6 7 6 5 5 4 4 5 6 7 6 7 9 11 13 14 14 16 17 19 21 18 14 13 14 14 14 18 25 29 26 22 22 23 23 21 19 16 14 17 20 20 20 20 18 17 16 14 14 14 13 13 14 14 15 15 14 14
3 3 1 2 2 2 3 5 5 5 5 4 3 3 3 3 4 4 4 3 1 2 3 2 2 2 2 4 5 5 5 5 5 5 4 4 4 5 6 6 6 7 10 10 11 12 14 16 16 17 21 21 17 15 15 16 14 14 19 25 24 21 24 26 25 24 23 19 17 19 20 20 21 21 19 18 16 14 13 13 13 13 14 14 15 15 14 14
3 1 1 1 2 2 2 3 4 4 5 4 4 4 4 4 4 4 4 4 2 1 2 1 2 2 2 3 4 5 5 5 6 6 5 5 5 5 6 5 5 6 8 9 10 11 14 15 14 15 17 19 19 18 16 16 16 13 13 17 19 19 23 25 26 26 23 19 19 22 21 20 21 21 20 18 16 15 14 13 13 13 13 14 15 15 15 14
2 1 1 1 1 1 2 2 2 3 3 3 3 4 4 4 5 4 5 6 4 2 2 0 1 1 1 1 3 4 3 4 5 6 6 6 6 7 7 5 5 6 7 8 10 11 13 14 14 15 16 17 19 19 19 18 17 16 15 17 19 20 21 22 24 25 21 18 20 23 22 21 21 20 20 19 17 16 14 14 14 13 13 14 15 15 15 15
2 1 1 2 1 1 2 2 2 1 2 2 3 3 3 4 4 4 5 6 5 4 4 2 1 1 2 2 2 2 2 3 3 3 5 5 5 6 7 6 7 8 7 8 10 12 13 14 13 15 17 18 18 19 20 19 19 19 19 19 21 21 21 20 20 21 21 22 23 23 23 22 22 21 20 19 19 17 16 15 15 14 13 14 15 15 15 15
3 2 2 2 2 1 2 1 1 1 1 2 2 2 3 4 3 2 3 4 4 5 5 4 2 0 2 3 3 3 3 4 4 4 5 5 5 6 7 6 7 8 7 7 8 10 13 14 13 13 15 17 18 19 18 18 19 20 20 21 22 22 21 20 18 17 20 23 24 24 23 23 24 23 22 21 20 19 18 17 16 15 15 15 16 15 15 15
Wind_Direction
314 312 310 308 306 303 300 296 293 290 287 285 283 281 278 276 274 271 269 267 265 263 261 259 258 256 252 249 247 247 246 244 242 237 233 230 224 224 224 218 216 216 215 214 213 213 213 215 217 217 218 220 223 227 232 233 233 243 251 280 317 320 33 78 100 119 136 144 150 162 167 160 157 159 158 155 153 153 152 157 151 144 145 145 143 145 145 147
314 311 309 307 305 304 301 298 295 291 287 284 282 280 278 275 273 271 269 266 264 262 260 259 258 256 254 251 248 247 246 244 242 240 235 229 225 224 221 216 215 214 213 213 213 213 214 214 214 215 217 220 223 226 231 229 226 234 242 265 299 324 37 78 106 125 148 151 150 155 162 163 160 162 166 162 160 162 160 160 153 146 146 146 145 147 147 149
315 312 310 307 305 303 301 299 296 293 289 285 281 279 277 274 272 270 268 266 263 260 259 258 257 255 253 251 249 247 245 245 243 239 235 228 224 222 218 216 214 213 212 212 212 213 215 215 214 214 217 221 223 225 226 221 222 232 234 247 269 279 35 85 115 130 151 154 152 153 159 162 161 165 170 165 162 169 168 160 155 152 151 150 149 149 150 151
317 314 311 309 306 303 301 299 296 294 291 286 283 279 276 274 271 269 267 265 262 259 257 256 255 255 252 251 250 246 245 245 238 230 228 223 219 218 217 215 213 212 211 211 212 213 215 216 215 215 218 222 224 224 224 219 219 231 232 239 266 269 249 115 122 126 144 154 154 155 160 163 164 166 169 167 163 169 175 164 157 155 154 153 152 152 153 153
318 315 312 310 307 305 302 299 297 294 291 288 284 280 277 274 271 269 266 264 260 257 256 254 253 252 251 250 247 245 242 237 228 222 222 221 217 216 216 215 213 211 209 211 214 212 213 216 217 217 218 222 225 222 223 225 223 227 226 217 240 257 209 143 133 131 138 150 155 160 163 164 169 172 172 170 167 169 172 167 160 156 154 155 155 155 155 155
318 315 312 310 307 305 302 300 297 294 292 288 285 281 278 274 271 269 266 263 259 256 254 252 251 250 249 247 244 242 235 229 228 224 221 221 218 216 215 214 213 210 209 212 215 212 210 214 217 217 217 222 227 225 224 225 226 228 225 214 208 217 188 153 153 146 140 149 160 167 163 161 170 175 175 172 169 172 173 170 163 158 156 157 157 158 158 157
318 315 313 310 307 305 302 300 298 295 292 289 286 282 278 275 271 268 265 262 258 255 252 250 249 248 247 245 242 237 233 235 235 224 221 222 221 217 214 212 211 209 209 213 216 210 208 212 214 215 217 220 225 228 227 226 228 228 227 226 213 207 187 160 164 158 146 149 161 167 165 167 175 173 175 181 178 176 177 175 165 160 159 158 160 161 160 159
317 315 313 310 308 305 302 300 298 295 292 289 286 283 279 276 271 267 264 260 257 254 251 248 247 245 244 242 239 236 234 234 227 221 224 225 221 217 213 211 209 208 209 214 215 210 209 212 213 214 215 218 224 228 229 228 229 229 227 229 216 211 204 168 167 164 154 152 158 167 172 173 176 174 176 183 182 179 179 176 167 163 161 161 163 163 162 161
316 315 313 310 308 305 303 300 298 295 293 290 286 283 280 277 272 267 262 259 256 253 249 246 244 242 240 239 237 236 232 227 222 224 227 225 222 216 212 210 207 207 210 214 214 210 210 213 213 213 214 220 228 232 231 225 224 226 223 221 221 220 211 189 179 173 166 164 163 168 177 172 171 178 181 181 180 179 179 178 174 168 164 165 166 164 165 164
316 315 312 310 307 305 303 300 297 295 293 290 287 283 280 277 272 267 262 258 254 251 248 244 241 239 237 236 234 232 229 227 226 226 225 223 220 214 211 210 206 206 211 214 214 212 212 214 213 213 219 226 231 233 228 219 220 226 221 219 223 221 215 211 190 179 175 168 167 173 178 173 174 184 188 185 182 176 176 181 180 173 167 167 167 165 167 166
317 315 312 310 307 305 302 300 297 295 292 289 287 284 280 276 271 267 262 257 253 250 246 242 238 236 236 235 232 229 230 230 226 223 222 220 217 213 211 210 207 208 212 214 214 212 213 214 214 214 220 224 223 228 226 221 225 228 224 223 222 221 220 218 199 185 187 179 172 174 172 175 186 191 189 183 179 174 174 180 178 173 170 168 168 167 168 168
318 316 313 311 308 305 302 299 297 295 292 289 287 284 280 275 271 267 262 256 252 248 243 239 236 234 234 236 233 231 234 232 225 221 221 218 216 213 211 210 209 210 212 214 214 213 213 215 217 217 217 219 219 226 230 223 225 224 224 227 222 221 220 217 210 194 193 191 176 171 173 185 192 188 184 179 178 177 177 177 174 172 172 170 170 170 169 170
319 317 315 312 309 306 303 300 297 295 292 289 287 284 281 276 270 264 260 255 250 245 240 235 233 233 233 235 232 229 231 229 224 222 219 217 215 212 212 211 210 212 214 215 215 214 215 217 221 222 223 223 220 226 236 224 220 220 221 225 221 221 221 219 212 194 192 193 180 183 193 195 192 185 183 179 179 183 181 176 174 174 173 172 173 172 171 172
320 318 316 314 311 308 305 301 298 295 292 290 287 284 281 277 270 263 258 253 247 241 236 233 232 232 232 234 232 227 229 228 223 222 218 215 213 211 212 211 210 213 215 216 218 217 215 219 223 225 227 227 225 233 239 223 217 218 219 221 220 224 223 214 203 189 193 194 188 202 215 196 191 186 186 181 181 188 185 177 176 177 175 174 176 175 174 174
321 319 317 315 313 310 307 303 300 296 293 291 288 285 281 276 270 262 255 250 244 237 233 232 231 231 233 235 232 227 227 228 224 221 218 214 212 212 212 210 210 212 214 216 219 217 216 219 221 222 225 226 227 233 230 220 217 215 218 221 218 223 220 200 196 194 197 197 198 211 210 191 190 188 189 185 183 189 189 183 179 179 178 176 179 178 177 177
322 320 318 316 314 311 308 305 301 297 294 292 288 285 280 274 268 260 252 246 241 234 230 231 230 230 234 233 228 225 225 224 222 219 216 215 214 212 210 208 209 211 212 213 217 217 216 218 218 219 222 222 221 223 221 219 218 214 217 222 216 216 211 192 194 194 193 198 206 212 205 196 193 189 191 190 188 189 190 191 185 182 182 180 181 181 179 180
324 322 320 317 315 312 309 306 302 298 295 292 288 284 278 272 266 259 250 243 240 233 230 234 232 229 233 233 229 226 224 221 217 215 214 214 213 210 208 207 208 210 211 211 215 217 215 216 217 216 219 220 216 217 219 217 215 213 214 222 224 217 206 196 198 194 192 199 204 206 204 198 187 187 194 194 195 192 190 196 195 188 186 185 185 183 182 182
326 324 322 319 317 314 311 308 304 300 297 293 288 281 276 271 264 258 247 239 237 233 233 234 231 231 234 232 228 225 222 217 213 213 213 212 211 209 208 209 209 208 209 211 214 214 213 215 215 216 216 216 215 214 217 215 213 212 210 217 226 221 211 208 205 196 194 199 200 198 197 191 183 186 194 195 197 196 192 198 203 198 192 191 189 185 185 184
327 326 324 322 319 317 313 311 307 302 299 294 289 282 276 270 263 257 247 237 231 228 234 228 221 229 234 226 224 222 217 213 211 212 211 211 211 209 209 210 208 208 209 211 213 212 212 214 214 216 215 214 214 214 216 215 214 213 210 216 222 223 221 214 201 192 193 198 200 197 194 192 191 192 194 196 197 197 196 201 206 205 201 200 195 188 187 187
329 327 326 324 322 319 316 313 308 305 301 294 291 283 276 273 265 257 245 234 229 230 239 229 219 227 232 223 219 214 210 210 212 212 211 211 210 209 209 209 208 209 211 211 212 211 212 215 215 215 215 214 214 217 219 219 221 224 217 216 220 225 225 206 192 192 195 200 203 199 195 195 196 196 197 196 197 199 201 201 204 206 203 202 201 192 188 188
331 329 327 325 324 322 318 315 310 307 302 294 292 281 279 286 274 262 250 237 232 232 236 233 225 227 230 226 215 210 211 212 214 213 211 210 209 208 208 208 208 210 212 212 211 211 213 217 217 215 216 216 216 217 219 221 228 236 229 219 217 221 220 203 194 196 199 206 209 202 196 197 199 201 201 197 199 203 203 201 202 204 203 204 207 199 190 189
332 331 329 327 327 324 321 319 313 310 304 294 288 278 284 294 274 265 262 248 239 232 232 232 230 230 228 225 219 216 217 215 214 213 210 209 208 208 207 208 211 210 211 212 211 211 214 218 218 215 216 218 219 218 219 222 228 234 228 221 218 213 209 202 199 201 206 212 208 199 197 198 199 201 202 199 202 206 203 202 201 200 203 206 210 204 191 189
335 333 332 331 330 328 326 324 319 312 303 292 286 282 290 293 273 266 259 253 246 230 228 230 229 229 225 224 223 221 219 216 214 211 208 208 209 209 208 209 212 211 210 211 212 212 215 218 218 217 215 217 220 219 218 222 224 226 220 218 218 211 203 197 197 198 202 207 200 194 198 202 201 201 203 202 202 202 198 199 199 199 204 205 207 207 196 191
337 336 336 335 333 334 333 330 325 316 303 292 288 289 297 292 279 274 257 252 247 227 228 230 226 226 224 224 224 221 220 217 214 210 206 208 209 209 211 210 211 212 212 212 213 215 218 218 216 217 217 216 220 219 217 218 219 221 218 218 218 210 206 200 198 199 201 208 202 191 196 205 206 204 205 204 201 198 194 194 197 199 203 204 206 209 202 194
339 339 339 338 338 339 337 333 328 320 306 297 295 297 302 296 286 278 259 253 238 221 228 226 220 224 220 219 220 218 218 217 215 209 204 208 209 207 211 212 211 213 212 212 214 217 219 217 213 215 217 216 218 218 216 216 216 217 218 221 224 217 213 205 200 205 210 214 206 197 203 209 209 208 205 205 203 198 194 196 200 200 203 205 207 210 204 197
340 341 342 342 342 341 338 337 337 330 315 307 307 306 304 301 294 278 260 255 231 216 222 215 215 221 217 217 215 213 217 218 215 207 204 210 211 209 212 212 211 215 214 212 214 218 218 217 214 213 216 216 216 218 215 213 215 217 215 219 224 226 225 217 208 210 217 221 205 202 213 211 204 207 203 202 202 196 194 197 200 199 202 206 206 209 205 197
342 344 344 344 345 344 344 344 341 336 328 318 315 312 309 305 298 285 263 247 218 211 211 206 216 220 216 215 208 207 214 211 207 205 206 210 209 211 215 212 210 214 217 214 213 216 216 217 216 210 213 215 213 216 215 210 214 215 212 215 218 222 227 222 215 214 221 229 211 206 219 219 201 202 199 197 196 193 194 200 200 199 203 206 204 206 207 201
343 345 346 346 346 345 346 344 337 335 335 327 318 317 318 310 298 285 265 223 191 208 209 206 216 217 215 211 203 204 208 203 202 204 207 209 206 209 214 215 215 214 216 216 214 214 213 217 216 210 213 216 212 214 213 209 213 215 218 224 220 219 224 228 227 220 218 225 216 207 213 216 198 193 192 189 190 194 198 203 203 199 200 203 202 204 208 205
342 344 348 349 348 345 348 347 340 338 342 337 331 332 331 324 310 257 246 270 215 212 216 217 216 214 212 205 203 207 209 206 207 205 204 206 205 209 216 218 222 221 216 217 218 214 211 216 217 211 213 214 209 212 215 211 212 216 225 234 220 212 216 228 230 218 213 220 220 207 204 210 203 194 192 188 193 203 206 208 210 205 199 200 201 203 205 204
341 343 348 351 352 351 347 345 342 344 351 352 351 355 343 335 324 246 253 325 189 187 211 219 211 211 208 201 204 210 209 203 204 203 202 205 207 212 220 217 221 225 215 213 221 220 214 214 213 210 212 214 211 213 217 214 211 215 221 225 214 206 211 220 220 214 214 218 222 215 205 208 214 206 204 203 204 209 210 215 218 211 205 204 205 204 204 204
341 342 348 354 357 356 349 348 352 354 357 359 4 5 349 0 352 296 349 3 172 176 212 204 194 203 203 200 201 204 205 200 200 206 204 207 209 211 217 214 214 220 212 213 221 221 218 214 210 211 212 213 215 215 216 215 211 212 214 213 210 206 212 219 218 218 220 217 219 220 213 215 221 213 207 208 205 201 203 212 214 209 207 209 209 207 205 206
338 339 344 351 356 357 355 354 358 359 360 360 1 354 344 0 342 273 76 234 241 226 227 206 190 201 201 201 198 197 205 205 205 212 208 206 208 207 210 209 206 211 213 214 215 213 217 217 209 212 214 212 214 214 213 212 210 211 211 210 210 207 210 218 219 219 224 223 220 221 221 223 224 209 200 201 199 193 196 203 205 205 206 207 210 209 207 207
336 336 339 345 352 358 358 355 360 3 1 355 353 360 1 10 344 345 24 293 245 244 252 232 198 197 196 199 198 196 206 209 206 210 207 204 206 204 208 211 208 211 215 214 210 208 215 216 210 211 210 210 215 214 209 209 209 209 209 209 210 209 210 215 218 219 223 227 225 223 221 216 207 201 198 196 196 196 198 200 201 204 206 206 208 208 207 207
333 332 337 342 345 352 354 355 1 3 360 348 348 21 23 2 22 12 358 7 20 222 235 225 187 188 191 195 193 195 206 209 204 204 202 200 203 204 208 211 210 213 219 216 212 211 214 213 212 213 209 208 213 215 211 209 208 208 210 211 211 213 214 216 219 221 222 224 223 223 221 210 202 203 201 196 197 200 203 206 206 206 205 207 207 205 205 207
330 330 337 342 341 342 347 350 354 357 1 351 335 5 4 338 1 5 347 12 18 218 199 209 206 194 194 197 192 197 208 208 202 203 203 201 202 205 205 205 207 213 218 214 212 216 219 218 214 212 211 207 208 213 215 212 209 207 211 215 215 215 217 221 223 222 221 219 217 216 214 204 196 197 199 198 198 200 203 206 206 203 199 204 209 206 206 207
327 326 332 341 343 345 347 349 350 348 348 353 352 349 335 322 337 342 324 317 321 305 183 202 223 204 193 197 202 204 206 207 205 202 202 200 196 199 201 201 205 209 211 211 210 212 220 224 212 205 209 210 208 212 216 212 207 207 213 217 217 216 221 226 225 221 220 220 216 207 197 193 194 197 201 199 198 200 203 205 205 200 193 199 212 211 209 208
328 322 319 330 345 355 355 351 356 349 339 357 11 353 341 338 336 333 308 278 292 311 187 193 217 203 188 188 204 212 202 204 210 202 197 199 194 197 206 207 206 206 208 211 210 209 219 218 201 199 208 212 210 212 214 210 208 211 214 215 216 219 226 229 227 223 219 220 219 205 193 197 202 203 203 200 202 206 208 207 205 199 193 196 207 210 209 209
332 327 319 325 351 0 356 352 360 357 348 355 351 329 342 8 359 346 321 276 208 67 2 247 197 180 194 197 201 207 200 199 208 204 199 203 204 210 218 214 208 210 213 212 210 215 221 209 201 208 213 210 207 210 213 212 212 214 214 214 216 219 222 222 224 225 219 220 220 203 195 205 209 206 204 204 205 206 207 209 205 197 193 196 202 204 203 206
329 332 329 334 353 354 355 1 354 345 347 356 356 341 353 20 17 4 350 257 171 98 40 216 192 180 218 217 198 195 196 192 201 205 201 204 209 218 224 218 213 216 216 214 215 217 213 205 209 216 216 211 207 210 213 211 210 215 220 221 218 217 220 218 218 222 220 221 219 203 198 207 208 205 205 203 203 202 203 208 207 203 202 203 203 203 203 205
316 322 332 344 346 350 358 3 335 326 325 331 339 343 350 11 18 11 355 295 207 166 88 153 198 196 199 201 192 188 189 184 192 198 195 206 218 219 221 222 222 225 220 214 215 213 207 208 214 214 213 210 208 211 213 211 210 213 218 218 214 213 220 221 218 220 220 224 223 209 200 204 203 202 201 199 203 208 207 210 213 212 213 213 210 210 212 210
319 321 329 331 335 346 351 340 332 327 323 320 327 350 349 339 352 3 359 287 221 202 244 271 178 144 128 158 181 185 180 175 186 193 190 204 222 221 218 223 226 226 220 212 212 211 209 211 214 212 211 211 213 212 212 213 213 213 215 215 212 210 215 219 220 220 218 223 227 212 200 205 206 204 203 203 207 211 211 214 216 213 213 216 217 219 221 215
324 331 339 330 331 345 339 336 345 345 347 348 339 351 349 309 321 346 331 272 251 220 240 224 185 181 142 131 169 187 188 180 181 195 199 194 205 215 214 220 224 222 215 210 210 212 212 209 210 216 217 218 216 207 205 211 215 216 218 217 214 213 215 218 221 221 219 219 219 207 203 212 214 209 208 210 210 210 213 215 216 214 212 214 216 218 221 220
316 325 348 347 345 355 341 338 349 359 4 357 334 336 346 334 336 346 333 294 275 235 215 186 199 226 215 199 176 177 184 183 172 178 193 191 195 215 214 215 222 219 211 209 211 213 212 210 211 219 221 215 207 200 205 214 216 218 220 217 215 216 216 220 226 226 223 217 210 211 214 215 214 212 212 213 210 210 214 213 213 213 211 212 214 215 217 220
317 314 346 3 358 345 344 346 355 9 12 1 355 3 354 348 353 354 0 2 337 285 232 202 162 194 209 217 226 204 162 181 191 184 180 184 197 215 216 213 219 214 204 207 214 215 213 211 213 217 214 207 204 204 212 217 216 218 218 216 218 218 217 225 230 225 224 221 217 219 218 212 211 212 212 213 212 211 212 211 213 213 209 209 213 215 216 216
318 303 310 350 353 343 353 1 8 17 22 19 24 31 14 359 347 331 328 324 323 318 258 236 220 204 205 210 222 225 179 177 205 218 195 185 196 208 213 212 217 213 203 211 220 218 215 214 214 215 212 208 210 212 216 217 216 218 220 219 218 219 222 227 229 225 227 227 224 218 210 207 210 210 208 210 211 210 208 208 212 212 210 209 210 213 214 214
317 310 292 337 0 4 12 11 9 13 15 21 26 19 13 16 8 334 314 299 288 299 288 253 244 235 223 216 220 220 203 195 209 219 203 189 190 200 211 213 212 214 218 225 224 219 218 218 216 216 215 216 221 221 221 223 220 220 222 220 219 222 224 224 228 230 229 226 222 214 206 203 207 208 206 206 210 209 206 206 209 210 209 209 208 209 211 211
310 322 307 314 346 5 19 12 9 15 12 12 17 9 7 16 22 25 351 321 277 268 280 272 259 245 228 228 222 211 211 211 210 209 198 187 189 195 207 212 209 216 226 226 220 218 221 219 215 215 217 223 230 229 226 228 231 232 226 220 221 227 226 225 228 230 230 228 220 211 206 203 205 207 204 204 208 209 207 208 211 212 209 208 206 205 207 209
316 329 316 297 315 343 10 11 15 28 27 24 20 12 23 31 28 33 23 0 326 272 274 258 251 252 234 232 223 212 217 219 217 217 211 213 214 202 201 207 211 220 226 225 219 218 221 221 218 218 220 224 229 234 234 231 236 244 229 217 219 227 228 229 230 231 235 236 220 209 208 207 206 206 204 203 204 205 206 205 207 210 209 208 207 206 206 208
327 335 302 284 309 347 6 8 17 33 34 29 30 28 34 43 40 35 20 12 29 348 303 263 228 246 240 225 217 215 217 220 224 227 227 234 234 220 214 214 213 218 224 227 224 217 218 221 222 223 226 226 226 230 235 234 234 240 227 212 216 226 229 230 231 232 235 230 213 206 208 209 208 205 204 204 203 202 203 202 202 207 210 210 209 208 207 207
316 323 312 289 312 353 338 338 2 32 42 32 33 38 39 45 52 48 26 20 40 47 358 351 166 233 242 200 195 195 198 213 221 223 229 237 237 231 232 235 233 234 232 230 226 219 218 221 222 226 231 232 229 228 231 234 236 238 232 222 223 230 233 231 230 228 226 219 211 207 205 207 209 205 202 205 206 205 205 204 203 207 211 212 212 212 211 211
291 274 269 291 305 309 306 321 345 2 34 34 27 32 44 51 53 51 39 34 40 43 36 48 92 217 220 203 194 190 200 221 225 226 232 236 238 234 237 245 250 251 246 233 226 223 223 223 223 226 231 233 230 228 229 232 235 238 237 232 230 232 234 232 229 227 223 217 212 209 208 209 209 207 206 208 209 209 210 210 210 212 214 214 213 214 215 215
309 282 254 284 292 255 257 291 328 316 347 29 27 32 52 61 56 38 35 40 44 42 41 41 30 341 196 198 218 234 242 244 245 246 240 238 242 241 242 248 248 247 247 240 231 227 225 226 225 224 229 234 229 224 227 231 233 235 237 237 233 231 232 229 225 224 223 218 215 215 215 213 211 211 213 213 212 212 213 214 216 216 216 215 214 215 216 216